Location: Blienschwiller
(48.3416°N, 7.4182°E)
Time: 20:49:58
(UTC+00:00)

NOSS 3-1 (C) - Pass Details

Date: 18 February 2020
Orbit: 759 x 1449 km, 63.4° (Epoch: 26 March)

Event Time Altitude Azimuth Distance (km) Brightness Sun altitude
Exits shadow 03:54:03 48° 223° (SW) 1,682 4.3 -27.0°
Drops below altitude 10° 04:01:25 10° 169° (S) 3,494 6.4 -25.8°
Sets 04:04:33 0° 165° (SSE) 4,507 7.0 -25.3°
